Time,TemperatureF,DewpointF,PressureIn,WindDirection,WindDirectionDegrees,WindSpeedMPH,WindSpeedGustMPH,Humidity,HourlyPrecipIn,Conditions,Clouds,dailyrainin,SoftwareType,DateUTC
2013-01-22 00:07:00,5.4,-3.0,30.39,WNW,295,11.0,17.0,69,0.00,,,0.00,weatherlink.com 1.10,2013-01-22 06:07:00,
2013-01-22 00:22:00,5.3,-3.0,30.39,NNW,334,6.0,15.0,68,0.00,,,0.00,weatherlink.com 1.10,2013-01-22 06:22:00,
2013-01-22 00:37:00,5.1,-4.0,30.39,NW,310,6.0,16.0,67,0.00,,,0.00,weatherlink.com 1.10,2013-01-22 06:37:00,
2013-01-22 00:52:00,4.9,-4.0,30.39,NW,310,8.0,11.0,68,0.00,,,0.00,weatherlink.com 1.10,2013-01-22 06:52:00,
2013-01-22 01:07:00,4.7,-4.0,30.39,WNW,287,7.0,15.0,67,0.00,,,0.00,weatherlink.com 1.10,2013-01-22 07:07:00,
2013-01-22 01:23:00,4.6,-4.0,30.39,NW,310,10.0,14.0,67,0.00,,,0.00,weatherlink.com 1.10,2013-01-22 07:23:00,
2013-01-22 01:38:00,4.5,-4.0,30.39,WNW,298,5.0,11.0,67,0.00,,,0.00,weatherlink.com 1.10,2013-01-22 07:38:00,
2013-01-22 01:53:00,4.4,-4.0,30.40,WNW,291,5.0,13.0,68,0.00,,,0.00,weatherlink.com 1.10,2013-01-22 07:53:00,
2013-01-22 02:08:00,4.2,-4.0,30.40,WNW,300,5.0,10.0,68,0.00,,,0.00,weatherlink.com 1.10,2013-01-22 08:08:00,
2013-01-22 02:23:00,4.0,-4.0,30.41,WNW,299,5.0,10.0,70,0.00,,,0.00,weatherlink.com 1.10,2013-01-22 08:23:00,
2013-01-22 02:53:00,3.7,-4.0,30.41,WNW,302,5.0,12.0,70,0.00,,,0.00,weatherlink.com 1.10,2013-01-22 08:53:00,
2013-01-22 03:08:00,3.6,-4.0,30.41,West,270,2.0,10.0,70,0.00,,,0.00,weatherlink.com 1.10,2013-01-22 09:08:00,
2013-01-22 03:23:00,3.2,-4.0,30.42,West,269,5.0,7.0,71,0.00,,,0.00,weatherlink.com 1.10,2013-01-22 09:23:00,
2013-01-22 03:38:00,3.1,-4.0,30.42,West,274,2.0,9.0,71,0.00,,,0.00,weatherlink.com 1.10,2013-01-22 09:38:00,
2013-01-22 03:53:00,2.9,-5.0,30.43,West,266,1.0,7.0,71,0.00,,,0.00,weatherlink.com 1.10,2013-01-22 09:53:00,
2013-01-22 04:08:00,2.7,-4.0,30.43,West,270,4.0,8.0,72,0.00,,,0.00,weatherlink.com 1.10,2013-01-22 10:08:00,
2013-01-22 04:23:00,2.8,-4.0,30.43,WNW,289,7.0,9.0,72,0.00,,,0.00,weatherlink.com 1.10,2013-01-22 10:23:00,
2013-01-22 04:39:00,2.8,-5.0,30.43,WNW,295,5.0,11.0,70,0.00,,,0.00,weatherlink.com 1.10,2013-01-22 10:39:00,
2013-01-22 04:54:00,2.8,-5.0,30.44,West,271,6.0,9.0,70,0.00,,,0.00,weatherlink.com 1.10,2013-01-22 10:54:00,
2013-01-22 05:09:00,2.5,-5.0,30.44,West,264,5.0,7.0,70,0.00,,,0.00,weatherlink.com 1.10,2013-01-22 11:09:00,
2013-01-22 05:24:00,2.3,-5.0,30.45,WNW,285,4.0,11.0,71,0.00,,,0.00,weatherlink.com 1.10,2013-01-22 11:24:00,
2013-01-22 05:39:00,2.3,-5.0,30.45,WNW,303,7.0,9.0,71,0.00,,,0.00,weatherlink.com 1.10,2013-01-22 11:39:00,
2013-01-22 05:54:00,2.0,-5.0,30.45,WNW,288,4.0,6.0,71,0.00,,,0.00,weatherlink.com 1.10,2013-01-22 11:54:00,
2013-01-22 06:09:00,2.0,-5.0,30.45,WNW,282,4.0,7.0,72,0.00,,,0.00,weatherlink.com 1.10,2013-01-22 12:09:00,
2013-01-22 06:24:00,1.7,-5.0,30.46,West,274,3.0,6.0,73,0.00,,,0.00,weatherlink.com 1.10,2013-01-22 12:24:00,
2013-01-22 06:39:00,1.7,-5.0,30.47,West,268,2.0,7.0,73,0.00,,,0.00,weatherlink.com 1.10,2013-01-22 12:39:00,
2013-01-22 06:54:00,1.6,-5.0,30.47,West,264,2.0,6.0,73,0.00,,,0.00,weatherlink.com 1.10,2013-01-22 12:54:00,
2013-01-22 07:09:00,1.3,-6.0,30.48,WSW,255,0.0,7.0,73,0.00,,,0.00,weatherlink.com 1.10,2013-01-22 13:09:00,
2013-01-22 07:24:00,1.1,-5.0,30.48,WSW,249,3.0,4.0,74,0.00,,,0.00,weatherlink.com 1.10,2013-01-22 13:24:00,
2013-01-22 07:39:00,1.5,-5.0,30.48,WSW,257,1.0,5.0,75,0.00,,,0.00,weatherlink.com 1.10,2013-01-22 13:39:00,
2013-01-22 07:54:00,2.1,-5.0,30.48,West,268,6.0,8.0,73,0.00,,,0.00,weatherlink.com 1.10,2013-01-22 13:54:00,
2013-01-22 08:10:00,2.6,-5.0,30.49,West,264,3.0,10.0,72,0.00,,,0.00,weatherlink.com 1.10,2013-01-22 14:10:00,
2013-01-22 08:25:00,3.1,-5.0,30.50,NW,310,8.0,12.0,70,0.00,,,0.00,weatherlink.com 1.10,2013-01-22 14:25:00,
2013-01-22 08:40:00,3.4,-5.0,30.50,NW,320,10.0,13.0,69,0.00,,,0.00,weatherlink.com 1.10,2013-01-22 14:40:00,
2013-01-22 08:55:00,3.8,-5.0,30.51,NNW,345,6.0,14.0,68,0.00,,,0.00,weatherlink.com 1.10,2013-01-22 14:55:00,
2013-01-22 09:10:00,4.6,-4.0,30.51,WNW,299,9.0,11.0,68,0.00,,,0.00,weatherlink.com 1.10,2013-01-22 15:10:00,
2013-01-22 09:25:00,5.1,-4.0,30.51,WNW,288,5.0,10.0,66,0.00,,,0.00,weatherlink.com 1.10,2013-01-22 15:25:00,
2013-01-22 09:40:00,5.5,-4.0,30.51,WNW,294,7.0,11.0,66,0.00,,,0.00,weatherlink.com 1.10,2013-01-22 15:40:00,
2013-01-22 09:55:00,5.8,-4.0,30.52,WNW,297,7.0,12.0,63,0.00,,,0.00,weatherlink.com 1.10,2013-01-22 15:55:00,
2013-01-22 10:10:00,6.2,-4.0,30.52,West,266,3.0,13.0,62,0.00,,,0.00,weatherlink.com 1.10,2013-01-22 16:10:00,
2013-01-22 10:25:00,7.2,-4.0,30.51,North,351,4.0,12.0,61,0.00,,,0.00,weatherlink.com 1.10,2013-01-22 16:25:00,
2013-01-22 10:40:00,6.9,-4.0,30.52,West,268,8.0,13.0,62,0.00,,,0.00,weatherlink.com 1.10,2013-01-22 16:40:00,
2013-01-22 10:55:00,6.9,-4.0,30.51,West,267,8.0,14.0,60,0.00,,,0.00,weatherlink.com 1.10,2013-01-22 16:55:00,
2013-01-22 11:10:00,8.2,-3.0,30.50,WNW,295,5.0,10.0,60,0.00,,,0.00,weatherlink.com 1.10,2013-01-22 17:10:00,
2013-01-22 11:25:00,8.3,-3.0,30.50,WNW,291,5.0,11.0,60,0.00,,,0.00,weatherlink.com 1.10,2013-01-22 17:25:00,
2013-01-22 11:41:00,8.2,-3.0,30.49,West,276,8.0,12.0,60,0.00,,,0.00,weatherlink.com 1.10,2013-01-22 17:41:00,
2013-01-22 11:56:00,8.6,-3.0,30.48,WNW,284,4.0,13.0,59,0.00,,,0.00,weatherlink.com 1.10,2013-01-22 17:56:00,
2013-01-22 12:11:00,9.6,-3.0,30.48,WSW,244,5.0,13.0,58,0.00,,,0.00,weatherlink.com 1.10,2013-01-22 18:11:00,
2013-01-22 12:26:00,10.7,-3.0,30.48,NW,315,12.0,16.0,55,0.00,,,0.00,weatherlink.com 1.10,2013-01-22 18:26:00,
2013-01-22 12:41:00,9.9,-3.0,30.48,NW,310,9.0,15.0,55,0.00,,,0.00,weatherlink.com 1.10,2013-01-22 18:41:00,
2013-01-22 12:56:00,10.9,-2.0,30.47,NW,320,12.0,15.0,56,0.00,,,0.00,weatherlink.com 1.10,2013-01-22 18:56:00,
2013-01-22 13:11:00,10.2,-3.0,30.47,WNW,287,8.0,17.0,55,0.00,,,0.00,weatherlink.com 1.10,2013-01-22 19:11:00,
2013-01-22 13:26:00,11.7,-2.0,30.47,West,270,14.0,15.0,54,0.00,,,0.00,weatherlink.com 1.10,2013-01-22 19:26:00,
2013-01-22 13:41:00,11.4,-2.0,30.46,NW,310,7.0,14.0,56,0.00,,,0.00,weatherlink.com 1.10,2013-01-22 19:41:00,
2013-01-22 13:56:00,11.9,-1.0,30.46,WNW,291,12.0,12.0,56,0.00,,,0.00,weatherlink.com 1.10,2013-01-22 19:56:00,
2013-01-22 14:26:00,12.2,-1.0,30.47,WSW,247,8.0,17.0,56,0.00,,,0.00,weatherlink.com 1.10,2013-01-22 20:26:00,
2013-01-22 14:41:00,11.6,-1.0,30.47,West,279,8.0,18.0,56,0.00,,,0.00,weatherlink.com 1.10,2013-01-22 20:41:00,
2013-01-22 14:57:00,11.4,-2.0,30.46,West,271,9.0,18.0,56,0.00,,,0.00,weatherlink.com 1.10,2013-01-22 20:57:00,
2013-01-22 15:12:00,11.6,-1.0,30.46,NW,310,8.0,13.0,56,0.00,,,0.00,weatherlink.com 1.10,2013-01-22 21:12:00,
2013-01-22 15:42:00,11.4,-2.0,30.47,NW,310,16.0,19.0,54,0.00,,,0.00,weatherlink.com 1.10,2013-01-22 21:42:00,
2013-01-22 15:57:00,10.8,-3.0,30.47,West,270,13.0,13.0,54,0.00,,,0.00,weatherlink.com 1.10,2013-01-22 21:57:00,
2013-01-22 16:12:00,10.5,-3.0,30.47,West,281,9.0,15.0,55,0.00,,,0.00,weatherlink.com 1.10,2013-01-22 22:12:00,
2013-01-22 16:27:00,10.3,-3.0,30.46,WNW,289,8.0,13.0,56,0.00,,,0.00,weatherlink.com 1.10,2013-01-22 22:27:00,
2013-01-22 16:42:00,10.1,-3.0,30.47,West,273,4.0,12.0,57,0.00,,,0.00,weatherlink.com 1.10,2013-01-22 22:42:00,
2013-01-22 16:57:00,10.1,-2.0,30.47,West,281,4.0,10.0,58,0.00,,,0.00,weatherlink.com 1.10,2013-01-22 22:57:00,
2013-01-22 17:12:00,10.0,-2.0,30.47,West,280,6.0,10.0,58,0.00,,,0.00,weatherlink.com 1.10,2013-01-22 23:12:00,
2013-01-22 17:27:00,9.9,-2.0,30.46,WNW,288,4.0,6.0,59,0.00,,,0.00,weatherlink.com 1.10,2013-01-22 23:27:00,
2013-01-22 17:42:00,9.9,-1.0,30.46,WSW,254,2.0,5.0,61,0.00,,,0.00,weatherlink.com 1.10,2013-01-22 23:42:00,
2013-01-22 17:57:00,9.9,-1.0,30.46,West,260,5.0,5.0,61,0.00,,,0.00,weatherlink.com 1.10,2013-01-22 23:57:00,
2013-01-22 18:12:00,10.0,-1.0,30.46,WSW,238,3.0,5.0,62,0.00,,,0.00,weatherlink.com 1.10,2013-01-23 00:12:00,
2013-01-22 18:28:00,10.1,-1.0,30.46,West,260,5.0,6.0,62,0.00,,,0.00,weatherlink.com 1.10,2013-01-23 00:28:00,
2013-01-22 18:43:00,10.2,-1.0,30.46,West,266,4.0,6.0,62,0.00,,,0.00,weatherlink.com 1.10,2013-01-23 00:43:00,
2013-01-22 18:58:00,10.1,0.0,30.46,West,266,4.0,8.0,63,0.00,,,0.00,weatherlink.com 1.10,2013-01-23 00:58:00,
2013-01-22 19:13:00,10.1,0.0,30.46,WSW,256,3.0,7.0,63,0.00,,,0.00,weatherlink.com 1.10,2013-01-23 01:13:00,
2013-01-22 19:28:00,10.1,0.0,30.46,WNW,295,4.0,7.0,63,0.00,,,0.00,weatherlink.com 1.10,2013-01-23 01:28:00,
2013-01-22 19:43:00,10.1,0.0,30.45,WSW,251,3.0,6.0,63,0.00,,,0.00,weatherlink.com 1.10,2013-01-23 01:43:00,
2013-01-22 19:58:00,10.1,0.0,30.46,WSW,256,5.0,8.0,63,0.00,,,0.00,weatherlink.com 1.10,2013-01-23 01:58:00,
2013-01-22 20:28:00,10.0,0.0,30.46,WSW,246,1.0,6.0,64,0.00,,,0.00,weatherlink.com 1.10,2013-01-23 02:28:00,
2013-01-22 20:43:00,10.0,0.0,30.46,WSW,250,3.0,5.0,64,0.00,,,0.00,weatherlink.com 1.10,2013-01-23 02:43:00,
2013-01-22 20:58:00,9.8,0.0,30.47,West,259,1.0,3.0,65,0.00,,,0.00,weatherlink.com 1.10,2013-01-23 02:58:00,
2013-01-22 21:13:00,9.6,0.0,30.47,WSW,249,1.0,5.0,66,0.00,,,0.00,weatherlink.com 1.10,2013-01-23 03:13:00,
2013-01-22 21:29:00,9.5,0.0,30.47,West,269,1.0,4.0,66,0.00,,,0.00,weatherlink.com 1.10,2013-01-23 03:29:00,
2013-01-22 21:44:00,9.5,1.0,30.48,WSW,257,1.0,3.0,68,0.00,,,0.00,weatherlink.com 1.10,2013-01-23 03:44:00,
2013-01-22 21:58:00,9.6,1.0,30.48,WSW,249,1.0,3.0,68,0.00,,,0.00,weatherlink.com 1.10,2013-01-23 03:58:00,
2013-01-22 22:14:00,9.9,2.0,30.47,WSW,249,0.0,2.0,69,0.00,,,0.00,weatherlink.com 1.10,2013-01-23 04:14:00,
2013-01-22 22:29:00,10.1,2.0,30.47,WSW,249,2.0,3.0,69,0.00,,,0.00,weatherlink.com 1.10,2013-01-23 04:29:00,
2013-01-22 22:44:00,10.4,2.0,30.47,WSW,253,1.0,3.0,69,0.00,,,0.00,weatherlink.com 1.10,2013-01-23 04:44:00,
2013-01-22 22:59:00,10.5,2.0,30.47,WSW,239,3.0,3.0,68,0.00,,,0.00,weatherlink.com 1.10,2013-01-23 04:59:00,
2013-01-22 23:14:00,10.6,2.0,30.47,WSW,252,1.0,5.0,68,0.00,,,0.00,weatherlink.com 1.10,2013-01-23 05:14:00,
2013-01-22 23:29:00,10.8,2.0,30.48,WSW,249,0.0,3.0,68,0.00,,,0.00,weatherlink.com 1.10,2013-01-23 05:29:00,
2013-01-22 23:44:00,11.0,2.0,30.48,WNW,294,2.0,5.0,68,0.00,,,0.00,weatherlink.com 1.10,2013-01-23 05:44:00,
2013-01-22 23:59:00,11.2,2.0,30.47,West,261,4.0,6.0,67,0.00,,,0.00,weatherlink.com 1.10,2013-01-23 05:59:00,